Copper Harbor, MI

7:01 AM EST on February 09, 2016 (GMT -0500)
Copper Harbor

Weather History for KP59 - September, 2012

Change the Weather History Date:

Monday, September 17, 2012

  Actual Average Record
Temperature  
Mean Temperature 57 °F -  
Max Temperature 63 °F 61 °F 79 °F (2015)
Min Temperature 51 °F 47 °F 1 °F (1997)
Degree Days  
Heating Degree Days 8    
Growing Degree Days 7 (Base 50)    
Moisture  
Dew Point 50 °F    
Average Humidity 79    
Maximum Humidity 89    
Minimum Humidity 69    
Precipitation  
Precipitation 0.07 in - - ()
Sea Level Pressure  
Sea Level Pressure 29.85 in    
Wind  
Wind Speed 16 mph (ENE)    
Max Wind Speed 24 mph    
Max Gust Speed 32 mph    
Averages and records for this station are not official NWS values.
T = Trace of Precipitation, MM = Missing Value Source: NWS Daily Summary

Daily Weather History Graph

Daily Weather History Graph

Search for Another Location

Airport or City:

Trip Planner

Search our weather history database for the weather conditions in past years. The results will help you decide how hot, cold, wet, or windy it might be!

Date:

Astronomy

Sep. 17, 2012 Rise Set
Actual Time 7:32 AM EDT 7:58 PM EDT
Civil Twilight 7:01 AM EDT 8:29 PM EDT
Nautical Twilight 6:25 AM EDT 9:05 PM EDT
Astronomical Twilight 5:47 AM EDT 9:43 PM EDT
Moon 9:33 AM EDT (9/17) 8:26 PM EDT (9/17)
Length of Visible Light 13h 27m
Length of Day
12h 26m
Waxing Crescent, 3% of the Moon is Illuminated
Sep 17
Waxing Crescent
Sep 22
First Quarter
Sep 29
Full
Oct 8
Last Quarter
Oct 15
New

Hourly Weather History & Observations

Time (EDT) Temp. Dew Point Humidity Pressure Visibility Wind Dir Wind Speed Gust Speed Precip Events Conditions
12:51 AM 63.0 °F 55.0 °F 75% 29.82 in - NE 11.5 mph - N/A   Unknown
1:51 AM 62.1 °F 55.0 °F 78% 29.82 in - NE 12.7 mph - N/A   Unknown
2:51 AM 62.1 °F 55.0 °F 78% 29.83 in - NE 12.7 mph 19.6 mph N/A   Unknown
3:51 AM 60.1 °F 55.9 °F 86% 29.82 in - ENE 16.1 mph - 0.01 in   Unknown
4:51 AM 59.0 °F 55.0 °F 87% 29.81 in - ENE 16.1 mph 20.7 mph N/A   Unknown
5:51 AM 57.9 °F 54.0 °F 87% 29.82 in - ENE 12.7 mph - N/A   Unknown
6:51 AM 57.9 °F 53.1 °F 84% 29.82 in - ENE 19.6 mph - N/A   Unknown
7:51 AM 57.0 °F 53.1 °F 87% 29.84 in - ENE 16.1 mph - N/A   Unknown
8:51 AM 57.0 °F 52.0 °F 83% 29.84 in - ENE 12.7 mph - N/A   Unknown
9:51 AM 55.0 °F 52.0 °F 89% 29.86 in - ENE 13.8 mph - N/A   Unknown
10:51 AM 55.9 °F 50.0 °F 80% 29.85 in - ENE 15.0 mph - N/A   Unknown
11:51 AM 55.9 °F 50.0 °F 80% 29.85 in - NE 13.8 mph 23.0 mph N/A   Unknown
12:51 PM 55.0 °F 50.0 °F 83% 29.85 in - ENE 18.4 mph 25.3 mph 0.01 in   Unknown
1:51 PM 54.0 °F 48.9 °F 83% 29.85 in - ENE 20.7 mph - 0.03 in   Unknown
2:51 PM 54.0 °F 48.0 °F 80% 29.86 in - ENE 17.3 mph 24.2 mph N/A   Unknown
3:51 PM 54.0 °F 48.0 °F 80% 29.86 in - ENE 19.6 mph 25.3 mph N/A   Unknown
4:51 PM 53.1 °F 46.0 °F 77% 29.86 in - NE 21.9 mph 26.5 mph 0.02 in   Unknown
5:51 PM 53.1 °F 46.0 °F 77% 29.87 in - ENE 21.9 mph 27.6 mph N/A   Unknown
6:51 PM 53.1 °F 45.0 °F 74% 29.88 in - NE 18.4 mph 27.6 mph N/A   Unknown
7:51 PM 53.1 °F 43.0 °F 69% 29.88 in - NE 20.7 mph 27.6 mph N/A   Unknown
8:51 PM 53.1 °F 44.1 °F 71% 29.89 in - NE 24.2 mph 32.2 mph N/A   Unknown
9:51 PM 51.1 °F 44.1 °F 77% 29.91 in - NE 18.4 mph 29.9 mph N/A   Unknown
10:51 PM 52.0 °F 43.0 °F 71% 29.89 in - ENE 20.7 mph 31.1 mph N/A   Unknown
11:51 PM 52.0 °F 42.1 °F 69% 29.89 in - ENE 17.3 mph 26.5 mph N/A   Unknown